UAE9827 VVNB-OMDW

Flight info

Callsign UAE9827
Flight time N/A
Altitude 32000
Route HUVAN2C BQ B214 LADON/N0485F320 B214 AKSAG B465 CEA G450 JJS/N0478F340 A791 BPL L639 AAE W135 LAXOM L639 RASKI L301 RAGMA N571 VUSET A454 PASOV M564 PUXIL P574 IMPED/N0465F350 L313 KIPOK DCT NALNU M564 UMAMI
Aircraft B77F/H-SDE1E2E3FGHIJ2J3J4J5M1RWXY/LB1D1

Departure

Time N/A
Airport Noi Bai International Airport (VVNB)

Arrival

Time 2026-04-20 16:48
Airport Al Maktoum International Airport (OMDW)
Time Latitude Longitude Altitude Speed Heading
2026-04-20 11:05 20.92780 101.39416 31854 ft 485 kts 264°
2026-04-20 11:06 20.92361 101.35833 31855 ft 484 kts 264°
2026-04-20 11:06 20.91524 101.28688 31842 ft 484 kts 264°
2026-04-20 11:07 20.90685 101.21561 31857 ft 483 kts 264°
2026-04-20 11:07 20.89844 101.14441 31879 ft 482 kts 264°
2026-04-20 11:08 20.89002 101.07326 31874 ft 482 kts 264°
2026-04-20 11:08 20.88164 101.00263 31860 ft 482 kts 264°
2026-04-20 11:09 20.87315 100.93151 31862 ft 482 kts 264°
2026-04-20 11:09 20.86463 100.86032 31858 ft 482 kts 264°
2026-04-20 11:10 20.85608 100.78924 31858 ft 482 kts 264°
2026-04-20 11:10 20.84751 100.71813 31840 ft 482 kts 264°
2026-04-20 11:11 20.83893 100.64719 31842 ft 481 kts 264°
2026-04-20 11:11 20.83031 100.57616 31844 ft 482 kts 264°
2026-04-20 11:12 20.82289 100.50511 31831 ft 480 kts 270°
2026-04-20 11:12 20.82761 100.43413 31835 ft 479 kts 279°
2026-04-20 11:13 20.84358 100.36521 31837 ft 478 kts 287°
2026-04-20 11:13 20.86260 100.29717 31836 ft 478 kts 287°
2026-04-20 11:14 20.88151 100.22895 31831 ft 479 kts 287°
2026-04-20 11:14 20.89999 100.16114 31843 ft 478 kts 286°
2026-04-20 11:15 20.91843 100.09284 31838 ft 478 kts 286°
2026-04-20 11:15 20.93684 100.02446 31845 ft 478 kts 286°
2026-04-20 11:16 20.95523 99.95610 31837 ft 478 kts 286°
2026-04-20 11:16 20.97357 99.88785 31845 ft 477 kts 286°
2026-04-20 11:17 20.99186 99.81964 31850 ft 477 kts 286°
2026-04-20 11:17 21.01014 99.75134 31851 ft 477 kts 285°
2026-04-20 11:18 21.02839 99.68306 31863 ft 477 kts 285°
2026-04-20 11:18 21.04663 99.61471 31862 ft 477 kts 285°
2026-04-20 11:19 21.06482 99.54640 31861 ft 477 kts 285°
2026-04-20 11:19 21.08301 99.47798 31856 ft 478 kts 285°
2026-04-20 11:20 21.10117 99.40955 31857 ft 478 kts 285°
2026-04-20 11:20 21.11933 99.34099 31849 ft 478 kts 285°
2026-04-20 11:21 21.13746 99.27245 31843 ft 479 kts 285°
2026-04-20 11:21 21.15558 99.20382 31838 ft 479 kts 285°
2026-04-20 11:22 21.17365 99.13521 31841 ft 479 kts 285°
2026-04-20 11:22 21.19162 99.06692 31824 ft 479 kts 285°
2026-04-20 11:23 21.20965 98.99825 31828 ft 479 kts 285°
2026-04-20 11:23 21.22765 98.92959 31815 ft 478 kts 285°
2026-04-20 11:24 21.24561 98.86095 31820 ft 479 kts 285°
2026-04-20 11:24 21.26357 98.79220 31810 ft 479 kts 285°
2026-04-20 11:25 21.28148 98.72346 31800 ft 478 kts 285°
2026-04-20 11:25 21.29937 98.65478 31800 ft 477 kts 284°
2026-04-20 11:26 21.31715 98.58630 31790 ft 475 kts 284°
2026-04-20 11:26 21.33483 98.51811 31799 ft 474 kts 284°
2026-04-20 11:27 21.35243 98.45012 31796 ft 473 kts 284°
2026-04-20 11:27 21.36999 98.38216 31791 ft 472 kts 284°
2026-04-20 11:28 21.38749 98.31431 31791 ft 472 kts 284°
2026-04-20 11:28 21.40499 98.24633 31802 ft 473 kts 284°
2026-04-20 11:29 21.42251 98.17819 31794 ft 475 kts 284°
2026-04-20 11:29 21.43994 98.11019 31797 ft 476 kts 284°
2026-04-20 11:30 21.45750 98.04163 31795 ft 477 kts 284°
2026-04-20 11:30 21.47508 97.97286 31790 ft 478 kts 284°
2026-04-20 11:31 21.49260 97.90417 31785 ft 477 kts 284°
2026-04-20 11:31 21.51007 97.83558 31789 ft 475 kts 284°
2026-04-20 11:32 21.52745 97.76719 31787 ft 474 kts 284°
2026-04-20 11:32 21.54478 97.69890 31788 ft 473 kts 284°
2026-04-20 11:33 21.56203 97.63077 31784 ft 473 kts 284°
2026-04-20 11:33 21.57926 97.56262 31780 ft 472 kts 284°
2026-04-20 11:34 21.59647 97.49441 31921 ft 474 kts 284°
2026-04-20 11:34 21.60505 97.46035 32259 ft 471 kts 284°
2026-04-20 11:34 21.61359 97.42643 32614 ft 469 kts 284°
2026-04-20 11:34 21.62207 97.39271 32883 ft 467 kts 284°
2026-04-20 11:35 21.63054 97.35903 33130 ft 467 kts 284°
2026-04-20 11:35 21.63898 97.32542 33419 ft 465 kts 284°
2026-04-20 11:35 21.64739 97.29186 33690 ft 464 kts 284°
2026-04-20 11:36 21.66399 97.22561 33776 ft 459 kts 284°
2026-04-20 11:36 21.68046 97.15973 33770 ft 454 kts 283°
2026-04-20 11:37 21.69679 97.09429 33761 ft 453 kts 283°
2026-04-20 11:37 21.72117 96.99636 33758 ft 452 kts 283°
2026-04-20 11:38 21.73740 96.93103 33763 ft 453 kts 283°
2026-04-20 11:38 21.75365 96.86548 33767 ft 454 kts 283°
2026-04-20 11:39 21.76991 96.79976 33761 ft 455 kts 283°
2026-04-20 11:39 21.78619 96.73387 33766 ft 455 kts 283°
2026-04-20 11:40 21.80247 96.66800 33763 ft 456 kts 283°
2026-04-20 11:40 21.81870 96.60194 33756 ft 457 kts 283°
2026-04-20 11:41 21.83497 96.53582 33734 ft 457 kts 283°
2026-04-20 11:41 21.85118 96.46963 33739 ft 457 kts 283°
2026-04-20 11:42 21.86726 96.40394 33739 ft 457 kts 283°
2026-04-20 11:42 21.88343 96.33777 33713 ft 457 kts 283°
2026-04-20 11:43 21.89956 96.27166 33713 ft 457 kts 283°
2026-04-20 11:43 21.91566 96.20552 33690 ft 456 kts 283°
2026-04-20 11:44 21.92905 96.15017 33686 ft 456 kts 282°
2026-04-20 11:44 21.93872 96.08297 33666 ft 454 kts 274°
2026-04-20 11:45 21.94423 96.01521 33666 ft 454 kts 274°
2026-04-20 11:45 21.94996 95.94748 33675 ft 455 kts 275°
2026-04-20 11:46 21.95578 95.88005 33660 ft 455 kts 275°
2026-04-20 11:46 21.96164 95.81217 33661 ft 456 kts 275°
2026-04-20 11:47 21.96749 95.74415 33656 ft 456 kts 275°
2026-04-20 11:47 21.97330 95.67612 33663 ft 456 kts 274°
2026-04-20 11:48 21.97909 95.60796 33656 ft 457 kts 274°
2026-04-20 11:48 21.98486 95.53984 33654 ft 457 kts 274°
2026-04-20 11:49 21.99059 95.47165 33659 ft 457 kts 274°
2026-04-20 11:49 21.99630 95.40352 33659 ft 457 kts 274°
2026-04-20 11:50 22.00198 95.33534 33655 ft 457 kts 274°
2026-04-20 11:50 22.00762 95.26728 33656 ft 456 kts 274°
2026-04-20 11:51 22.01323 95.19934 33646 ft 454 kts 274°
2026-04-20 11:51 22.01878 95.13164 33649 ft 453 kts 274°
2026-04-20 11:52 22.02429 95.06422 33650 ft 451 kts 274°
2026-04-20 11:52 22.02975 94.99689 33650 ft 450 kts 274°
2026-04-20 11:53 22.03519 94.92967 33637 ft 451 kts 274°
2026-04-20 11:53 22.04061 94.86222 33660 ft 453 kts 274°
2026-04-20 11:54 22.04603 94.79449 33669 ft 455 kts 274°
2026-04-20 11:54 22.05141 94.72677 33668 ft 457 kts 274°
2026-04-20 11:55 22.05687 94.65790 33670 ft 459 kts 274°
2026-04-20 11:55 22.06227 94.58923 33674 ft 460 kts 274°
2026-04-20 11:56 22.06761 94.52104 33693 ft 459 kts 274°
2026-04-20 11:56 22.07295 94.45251 33677 ft 457 kts 273°
2026-04-20 11:57 22.07822 94.38447 33702 ft 454 kts 274°
2026-04-20 11:57 22.08344 94.31672 33692 ft 453 kts 274°
2026-04-20 11:58 22.08862 94.24917 33714 ft 451 kts 274°
2026-04-20 11:58 22.09375 94.18189 33719 ft 450 kts 274°
2026-04-20 11:59 22.09884 94.11465 33748 ft 449 kts 274°
2026-04-20 11:59 22.10390 94.04747 33743 ft 450 kts 274°
2026-04-20 12:00 22.10895 93.98013 33744 ft 451 kts 273°
2026-04-20 12:00 22.11398 93.91258 33801 ft 452 kts 273°
2026-04-20 12:01 22.11901 93.84483 33794 ft 454 kts 274°
2026-04-20 12:01 22.12402 93.77695 33841 ft 455 kts 273°
2026-04-20 12:02 22.12901 93.70887 33847 ft 455 kts 273°
2026-04-20 12:02 22.13396 93.64084 33850 ft 456 kts 273°
2026-04-20 12:03 22.13890 93.57259 33846 ft 457 kts 273°
2026-04-20 12:03 22.14383 93.50431 33882 ft 457 kts 273°
2026-04-20 12:04 22.14871 93.43594 33874 ft 457 kts 273°
2026-04-20 12:04 22.15358 93.36761 33893 ft 457 kts 273°
2026-04-20 12:05 22.15839 93.29969 33907 ft 457 kts 273°
2026-04-20 12:05 22.16320 93.23140 33910 ft 457 kts 273°
2026-04-20 12:06 22.16798 93.16303 33891 ft 457 kts 273°
2026-04-20 12:06 22.17272 93.09479 33899 ft 455 kts 273°
2026-04-20 12:07 22.17743 93.02665 33861 ft 455 kts 273°
2026-04-20 12:07 22.18212 92.95845 33857 ft 457 kts 273°
2026-04-20 12:08 22.18677 92.89013 33827 ft 456 kts 273°
2026-04-20 12:08 22.19138 92.82200 33844 ft 456 kts 273°
2026-04-20 12:09 22.19599 92.75378 33838 ft 456 kts 273°
2026-04-20 12:09 22.20056 92.68566 33820 ft 455 kts 273°
2026-04-20 12:10 22.20504 92.61753 33818 ft 455 kts 272°
2026-04-20 12:10 22.20923 92.54951 33801 ft 454 kts 272°
2026-04-20 12:11 22.21339 92.48150 33801 ft 454 kts 272°
2026-04-20 12:11 22.21755 92.41338 33794 ft 455 kts 272°
2026-04-20 12:12 22.22170 92.34525 33791 ft 454 kts 272°
2026-04-20 12:12 22.22581 92.27733 33798 ft 453 kts 272°
2026-04-20 12:13 22.23047 92.20947 33788 ft 453 kts 273°
2026-04-20 12:13 22.23554 92.14175 33788 ft 452 kts 273°
2026-04-20 12:14 22.24049 92.07421 33783 ft 451 kts 273°
2026-04-20 12:14 22.24534 92.00668 33779 ft 451 kts 273°
2026-04-20 12:15 22.25014 91.93922 33776 ft 451 kts 273°
2026-04-20 12:15 22.25492 91.87173 33782 ft 451 kts 273°
2026-04-20 12:16 22.25995 91.80430 33774 ft 451 kts 274°
2026-04-20 12:16 22.26776 91.73701 33775 ft 452 kts 276°
2026-04-20 12:17 22.27605 91.66982 33774 ft 452 kts 275°
2026-04-20 12:17 22.28392 91.60251 33773 ft 452 kts 275°
2026-04-20 12:18 22.29157 91.53517 33774 ft 452 kts 275°
2026-04-20 12:18 22.29919 91.46785 33769 ft 452 kts 275°
2026-04-20 12:19 22.30680 91.40056 33768 ft 451 kts 275°
2026-04-20 12:19 22.31467 91.33342 33763 ft 451 kts 276°
2026-04-20 12:20 22.32302 91.26684 33761 ft 450 kts 276°
2026-04-20 12:20 22.33141 91.19989 33756 ft 450 kts 276°
2026-04-20 12:21 22.33970 91.13300 33759 ft 449 kts 275°
2026-04-20 12:21 22.34792 91.06613 33753 ft 449 kts 275°
2026-04-20 12:22 22.35610 90.99923 33753 ft 449 kts 275°
2026-04-20 12:22 22.36425 90.93233 33754 ft 449 kts 275°
2026-04-20 12:23 22.37237 90.86550 33748 ft 449 kts 275°
2026-04-20 12:23 22.38046 90.79868 33748 ft 449 kts 275°
2026-04-20 12:24 22.38853 90.73178 33753 ft 449 kts 275°
2026-04-20 12:24 22.39658 90.66486 33745 ft 449 kts 275°
2026-04-20 12:25 22.40459 90.59799 33741 ft 449 kts 275°
2026-04-20 12:25 22.41258 90.53106 33747 ft 449 kts 275°
2026-04-20 12:26 22.42053 90.46417 33748 ft 449 kts 275°
2026-04-20 12:26 22.42847 90.39722 33737 ft 449 kts 275°
2026-04-20 12:27 22.43637 90.33030 33737 ft 449 kts 275°
2026-04-20 12:27 22.44426 90.26327 33742 ft 449 kts 275°
2026-04-20 12:28 22.45206 90.19674 33740 ft 449 kts 275°
2026-04-20 12:28 22.45989 90.12971 33736 ft 450 kts 275°
2026-04-20 12:29 22.46770 90.06256 33734 ft 450 kts 275°
2026-04-20 12:29 22.47549 89.99540 33734 ft 450 kts 275°
2026-04-20 12:30 22.48327 89.92811 33731 ft 451 kts 275°
2026-04-20 12:30 22.48971 89.87216 33734 ft 452 kts 275°
2026-04-20 12:31 22.49745 89.80470 33732 ft 452 kts 275°
2026-04-20 12:31 22.50517 89.73720 33731 ft 453 kts 275°
2026-04-20 12:32 22.51287 89.66959 33726 ft 453 kts 275°
2026-04-20 12:32 22.52054 89.60199 33731 ft 453 kts 275°
2026-04-20 12:33 22.52819 89.53432 33726 ft 453 kts 275°
2026-04-20 12:33 22.53580 89.46670 33726 ft 453 kts 275°
2026-04-20 12:34 22.54339 89.39905 33728 ft 453 kts 275°
2026-04-20 12:34 22.55094 89.33147 33727 ft 453 kts 275°
2026-04-20 12:35 22.55847 89.26387 33727 ft 452 kts 275°
2026-04-20 12:35 22.56595 89.19633 33718 ft 453 kts 275°
2026-04-20 12:36 22.57343 89.12865 33723 ft 453 kts 275°
2026-04-20 12:36 22.58083 89.06139 33721 ft 454 kts 275°
2026-04-20 12:37 22.58827 88.99351 33723 ft 454 kts 275°
2026-04-20 12:37 22.59630 88.92566 33717 ft 456 kts 278°
2026-04-20 12:38 22.60773 88.85817 33716 ft 456 kts 278°
2026-04-20 12:38 22.61941 88.79064 33712 ft 457 kts 279°
2026-04-20 12:39 22.63665 88.68897 33724 ft 459 kts 278°
2026-04-20 12:40 22.64807 88.62096 33720 ft 459 kts 278°
2026-04-20 12:40 22.65948 88.55290 33725 ft 460 kts 278°
2026-04-20 12:41 22.67088 88.48473 33724 ft 460 kts 278°
2026-04-20 12:41 22.67969 88.41627 33723 ft 459 kts 272°
2026-04-20 12:42 22.68396 88.34736 33721 ft 459 kts 272°
2026-04-20 12:42 22.68830 88.27853 33722 ft 458 kts 273°
2026-04-20 12:43 22.69276 88.20970 33718 ft 458 kts 273°
2026-04-20 12:43 22.69724 88.14097 33719 ft 458 kts 273°
2026-04-20 12:44 22.70170 88.07227 33734 ft 457 kts 272°
2026-04-20 12:44 22.70613 88.00365 33711 ft 456 kts 272°
2026-04-20 12:45 22.71047 87.93566 33703 ft 455 kts 272°
2026-04-20 12:45 22.71480 87.86749 33709 ft 453 kts 272°
2026-04-20 12:46 22.71909 87.79944 33706 ft 452 kts 272°
2026-04-20 12:46 22.72335 87.73157 33704 ft 452 kts 272°
2026-04-20 12:47 22.72756 87.66369 33694 ft 452 kts 272°
2026-04-20 12:47 22.73177 87.59567 33704 ft 453 kts 272°
2026-04-20 12:48 22.73595 87.52749 33696 ft 455 kts 272°
2026-04-20 12:48 22.74013 87.45904 33701 ft 456 kts 272°
2026-04-20 12:49 22.74428 87.39044 33697 ft 457 kts 272°
2026-04-20 12:49 22.74841 87.32165 33675 ft 458 kts 272°
2026-04-20 12:50 22.75252 87.25261 33686 ft 461 kts 273°
2026-04-20 12:50 22.75665 87.18303 33704 ft 464 kts 273°
2026-04-20 12:51 22.76079 87.11299 33704 ft 468 kts 272°
2026-04-20 12:51 22.76488 87.04249 33714 ft 469 kts 272°
2026-04-20 12:52 22.76896 86.97192 33697 ft 470 kts 272°
2026-04-20 12:52 22.77302 86.90171 33717 ft 460 kts 271°
2026-04-20 12:53 22.77693 86.83331 33723 ft 452 kts 271°
2026-04-20 12:53 22.78077 86.76532 33738 ft 452 kts 271°
2026-04-20 12:54 22.78457 86.69741 33745 ft 452 kts 271°
2026-04-20 12:54 22.78836 86.62930 33751 ft 453 kts 271°
2026-04-20 12:55 22.79214 86.56102 33764 ft 455 kts 270°
2026-04-20 12:55 22.79587 86.49301 33750 ft 455 kts 270°
2026-04-20 12:56 22.79959 86.42470 33756 ft 454 kts 270°
2026-04-20 12:56 22.80328 86.35656 33767 ft 452 kts 270°
2026-04-20 12:57 22.80692 86.28866 33769 ft 451 kts 270°
2026-04-20 12:57 22.81053 86.22087 33720 ft 450 kts 270°
2026-04-20 12:58 22.81430 86.15285 33718 ft 449 kts 270°
2026-04-20 12:58 22.81978 86.08585 33715 ft 449 kts 271°
2026-04-20 12:59 22.82573 86.01858 33740 ft 448 kts 271°
2026-04-20 12:59 22.83146 85.95127 33752 ft 448 kts 271°
2026-04-20 13:00 22.83700 85.88398 33767 ft 448 kts 271°
2026-04-20 13:00 22.84248 85.81659 33804 ft 449 kts 271°
2026-04-20 13:01 22.84795 85.74915 33817 ft 449 kts 271°
2026-04-20 13:01 22.85340 85.68167 33836 ft 450 kts 271°
2026-04-20 13:02 22.85882 85.61403 33821 ft 450 kts 271°
2026-04-20 13:02 22.86424 85.54642 33847 ft 450 kts 271°
2026-04-20 13:03 22.86961 85.47886 33839 ft 449 kts 271°
2026-04-20 13:03 22.87493 85.41140 33862 ft 449 kts 271°
2026-04-20 13:04 22.88023 85.34388 33847 ft 449 kts 271°
2026-04-20 13:04 22.88547 85.27689 33842 ft 449 kts 271°
2026-04-20 13:05 22.89071 85.20941 33845 ft 449 kts 271°
2026-04-20 13:05 22.89593 85.14201 33842 ft 449 kts 271°
2026-04-20 13:06 22.90112 85.07458 33856 ft 448 kts 271°
2026-04-20 13:06 22.90628 85.00720 33864 ft 448 kts 271°
2026-04-20 13:07 22.91142 84.93990 33841 ft 448 kts 271°
2026-04-20 13:07 22.91652 84.87270 33845 ft 447 kts 271°
2026-04-20 13:08 22.92158 84.80562 33843 ft 446 kts 271°
2026-04-20 13:08 22.92660 84.73853 33839 ft 446 kts 271°
2026-04-20 13:09 22.93160 84.67154 33843 ft 446 kts 271°
2026-04-20 13:09 22.93657 84.60450 33836 ft 446 kts 270°
2026-04-20 13:10 22.94150 84.53752 33839 ft 446 kts 270°
2026-04-20 13:10 22.94642 84.47046 33837 ft 446 kts 270°
2026-04-20 13:11 22.95130 84.40337 33840 ft 447 kts 270°
2026-04-20 13:11 22.95618 84.33611 33829 ft 447 kts 270°
2026-04-20 13:12 22.96103 84.26879 33834 ft 448 kts 270°
2026-04-20 13:12 22.96585 84.20143 33828 ft 448 kts 270°
2026-04-20 13:13 22.97062 84.13443 33825 ft 449 kts 270°
2026-04-20 13:13 22.97475 84.06680 33822 ft 449 kts 269°
2026-04-20 13:14 22.97826 83.99923 33814 ft 449 kts 269°
2026-04-20 13:14 22.98178 83.93162 33818 ft 449 kts 269°
2026-04-20 13:15 22.98536 83.86397 33816 ft 449 kts 269°
2026-04-20 13:15 22.98896 83.79626 33823 ft 449 kts 269°
2026-04-20 13:16 22.99254 83.72876 33804 ft 447 kts 269°
2026-04-20 13:16 22.99607 83.66155 33800 ft 445 kts 269°
2026-04-20 13:17 22.99954 83.59463 33789 ft 443 kts 269°
2026-04-20 13:17 23.00297 83.52793 33807 ft 442 kts 269°
2026-04-20 13:18 23.00637 83.46128 33782 ft 442 kts 269°
2026-04-20 13:18 23.00974 83.39470 33767 ft 442 kts 269°
2026-04-20 13:19 23.01252 83.33935 33781 ft 442 kts 269°
2026-04-20 13:19 23.01584 83.27270 33753 ft 443 kts 269°
2026-04-20 13:20 23.01914 83.20594 33763 ft 443 kts 269°
2026-04-20 13:20 23.02242 83.13906 33739 ft 444 kts 269°
2026-04-20 13:21 23.02568 83.07208 33738 ft 445 kts 269°
2026-04-20 13:21 23.02891 83.00493 33733 ft 446 kts 269°
2026-04-20 13:22 23.03213 82.93769 33724 ft 446 kts 269°
2026-04-20 13:22 23.03531 82.87031 33738 ft 447 kts 269°
2026-04-20 13:23 23.03848 82.80288 33711 ft 447 kts 269°
2026-04-20 13:23 23.04162 82.73541 33714 ft 447 kts 269°
2026-04-20 13:24 23.04473 82.66801 33705 ft 447 kts 269°
2026-04-20 13:24 23.04781 82.60066 33706 ft 446 kts 269°
2026-04-20 13:25 23.05085 82.53336 33695 ft 446 kts 268°
2026-04-20 13:25 23.05386 82.46615 33697 ft 446 kts 268°
2026-04-20 13:26 23.05682 82.39941 33716 ft 445 kts 268°
2026-04-20 13:26 23.05979 82.33181 33712 ft 445 kts 268°
2026-04-20 13:27 23.06269 82.26517 33703 ft 445 kts 268°
2026-04-20 13:27 23.06559 82.19814 33708 ft 444 kts 268°
2026-04-20 13:28 23.06875 82.13122 33709 ft 444 kts 269°
2026-04-20 13:28 23.07299 82.06432 33718 ft 444 kts 270°
2026-04-20 13:29 23.07736 81.99739 33725 ft 444 kts 270°
2026-04-20 13:29 23.08157 81.93045 33740 ft 444 kts 269°
2026-04-20 13:30 23.08569 81.86347 33740 ft 445 kts 269°
2026-04-20 13:30 23.08977 81.79645 33750 ft 445 kts 269°
2026-04-20 13:31 23.09381 81.72940 33749 ft 445 kts 269°
2026-04-20 13:31 23.09783 81.66233 33753 ft 445 kts 269°
2026-04-20 13:32 23.10182 81.59522 33767 ft 445 kts 269°
2026-04-20 13:32 23.10579 81.52806 33767 ft 446 kts 269°
2026-04-20 13:33 23.10973 81.46091 33779 ft 446 kts 269°
2026-04-20 13:33 23.11365 81.39370 33780 ft 446 kts 269°
2026-04-20 13:34 23.11753 81.32649 33794 ft 446 kts 269°
2026-04-20 13:34 23.12140 81.25920 33788 ft 447 kts 269°
2026-04-20 13:35 23.12524 81.19172 33793 ft 448 kts 269°
2026-04-20 13:35 23.12907 81.12408 33804 ft 449 kts 269°
2026-04-20 13:36 23.13288 81.05624 33818 ft 451 kts 269°
2026-04-20 13:36 23.13666 80.98817 33817 ft 452 kts 269°
2026-04-20 13:37 23.14043 80.91997 33814 ft 452 kts 269°
2026-04-20 13:37 23.14417 80.85218 33826 ft 453 kts 269°
2026-04-20 13:38 23.14786 80.78390 33828 ft 453 kts 269°
2026-04-20 13:38 23.15157 80.71563 33827 ft 453 kts 269°
2026-04-20 13:39 23.15529 80.64748 33834 ft 451 kts 269°
2026-04-20 13:39 23.15897 80.57955 33837 ft 449 kts 269°
2026-04-20 13:40 23.16260 80.51191 33851 ft 447 kts 269°
2026-04-20 13:40 23.16617 80.44457 33836 ft 445 kts 269°
2026-04-20 13:41 23.16971 80.37756 33850 ft 443 kts 269°
2026-04-20 13:41 23.17320 80.31073 33849 ft 443 kts 269°
2026-04-20 13:42 23.17665 80.24398 33848 ft 442 kts 269°
2026-04-20 13:42 23.18180 80.14390 33873 ft 442 kts 268°
2026-04-20 13:43 23.18519 80.07715 33849 ft 442 kts 268°
2026-04-20 13:43 23.18834 80.01049 33860 ft 441 kts 268°
2026-04-20 13:44 23.19119 79.94386 33858 ft 441 kts 268°
2026-04-20 13:44 23.19402 79.87724 33855 ft 441 kts 268°
2026-04-20 13:45 23.19685 79.81066 33854 ft 441 kts 268°
2026-04-20 13:45 23.19967 79.74405 33852 ft 441 kts 268°
2026-04-20 13:46 23.20247 79.67741 33852 ft 441 kts 268°
2026-04-20 13:46 23.20524 79.61078 33851 ft 442 kts 268°
2026-04-20 13:47 23.20779 79.54454 33853 ft 441 kts 267°
2026-04-20 13:47 23.20907 79.47746 33853 ft 441 kts 266°
2026-04-20 13:48 23.21008 79.41125 33851 ft 441 kts 266°
2026-04-20 13:48 23.21120 79.34410 33849 ft 442 kts 266°
2026-04-20 13:49 23.21237 79.27776 33850 ft 442 kts 266°
2026-04-20 13:49 23.21355 79.21049 33852 ft 442 kts 266°
2026-04-20 13:50 23.21470 79.14365 33847 ft 442 kts 266°
2026-04-20 13:50 23.21581 79.07677 33850 ft 443 kts 266°
2026-04-20 13:51 23.21689 79.00981 33850 ft 443 kts 266°
2026-04-20 13:51 23.21794 78.94328 33851 ft 443 kts 266°
2026-04-20 13:52 23.21898 78.87625 33845 ft 444 kts 266°
2026-04-20 13:52 23.21998 78.80918 33849 ft 444 kts 266°
2026-04-20 13:53 23.22096 78.74212 33842 ft 444 kts 266°
2026-04-20 13:53 23.22333 78.67498 33850 ft 445 kts 268°
2026-04-20 13:54 23.22695 78.60778 33844 ft 445 kts 269°
2026-04-20 13:54 23.23045 78.54057 33846 ft 445 kts 268°
2026-04-20 13:55 23.23372 78.47339 33847 ft 445 kts 268°
2026-04-20 13:55 23.23686 78.40620 33846 ft 445 kts 268°
2026-04-20 13:56 23.23996 78.33900 33847 ft 445 kts 268°
2026-04-20 13:56 23.24304 78.27181 33847 ft 445 kts 268°
2026-04-20 13:57 23.24610 78.20458 33844 ft 445 kts 268°
2026-04-20 13:57 23.24913 78.13731 33850 ft 446 kts 268°
2026-04-20 13:58 23.25213 78.06999 33848 ft 446 kts 268°
2026-04-20 13:58 23.25511 78.00267 33851 ft 445 kts 268°
2026-04-20 13:59 23.25806 77.93539 33852 ft 446 kts 268°
2026-04-20 13:59 23.26098 77.86802 33848 ft 446 kts 268°
2026-04-20 14:00 23.26385 77.80109 33849 ft 446 kts 268°
2026-04-20 14:00 23.26672 77.73363 33868 ft 446 kts 268°
2026-04-20 14:01 23.26956 77.66615 33846 ft 447 kts 268°
2026-04-20 14:01 23.27237 77.59858 33848 ft 447 kts 268°
2026-04-20 14:02 23.27516 77.53096 33841 ft 448 kts 268°
2026-04-20 14:02 23.27793 77.46325 33848 ft 448 kts 268°
2026-04-20 14:03 23.28067 77.39544 33850 ft 449 kts 268°
2026-04-20 14:03 23.28254 77.32767 33853 ft 447 kts 264°
2026-04-20 14:04 23.27795 77.26057 33851 ft 445 kts 261°
2026-04-20 14:04 23.27297 77.19345 33852 ft 446 kts 262°
2026-04-20 14:05 23.26813 77.12613 33858 ft 446 kts 262°
2026-04-20 14:05 23.26332 77.05878 33860 ft 447 kts 262°
2026-04-20 14:06 23.25931 77.00271 33861 ft 448 kts 262°
2026-04-20 14:06 23.25445 76.93522 33862 ft 448 kts 262°
2026-04-20 14:07 23.24956 76.86768 33870 ft 448 kts 262°
2026-04-20 14:07 23.24462 76.80004 33862 ft 449 kts 262°
2026-04-20 14:08 23.23965 76.73227 33866 ft 450 kts 262°
2026-04-20 14:08 23.23465 76.66441 33866 ft 451 kts 262°
2026-04-20 14:09 23.22960 76.59645 33872 ft 451 kts 262°
2026-04-20 14:09 23.22453 76.52844 33872 ft 451 kts 262°
2026-04-20 14:10 23.21941 76.46039 33873 ft 452 kts 262°
2026-04-20 14:10 23.21426 76.39214 33880 ft 453 kts 262°
2026-04-20 14:11 23.20910 76.32425 33883 ft 454 kts 262°
2026-04-20 14:11 23.20387 76.25574 33882 ft 455 kts 262°
2026-04-20 14:12 23.19860 76.18716 33893 ft 455 kts 262°
2026-04-20 14:12 23.19330 76.11852 33884 ft 456 kts 262°
2026-04-20 14:13 23.18796 76.04975 33900 ft 457 kts 262°
2026-04-20 14:13 23.18342 75.98072 33897 ft 460 kts 265°
2026-04-20 14:14 23.18263 75.91123 33912 ft 460 kts 266°
2026-04-20 14:14 23.18204 75.84159 33912 ft 461 kts 266°
2026-04-20 14:15 23.18130 75.77190 33919 ft 461 kts 266°
2026-04-20 14:15 23.18044 75.70211 33914 ft 462 kts 266°
2026-04-20 14:16 23.17952 75.63269 33920 ft 463 kts 266°
2026-04-20 14:16 23.17856 75.56276 33917 ft 463 kts 266°
2026-04-20 14:17 23.17758 75.49279 33919 ft 463 kts 266°
2026-04-20 14:17 23.17657 75.42283 33924 ft 463 kts 266°
2026-04-20 14:18 23.17552 75.35281 33915 ft 463 kts 266°
2026-04-20 14:18 23.17445 75.28277 33915 ft 464 kts 266°
2026-04-20 14:19 23.17334 75.21266 33916 ft 464 kts 266°
2026-04-20 14:19 23.17220 75.14253 33913 ft 464 kts 266°
2026-04-20 14:20 23.17104 75.07236 33913 ft 464 kts 266°
2026-04-20 14:20 23.16983 75.00214 33903 ft 465 kts 266°
2026-04-20 14:21 23.16860 74.93187 33909 ft 465 kts 266°
2026-04-20 14:21 23.16733 74.86150 33908 ft 466 kts 266°
2026-04-20 14:22 23.16603 74.79110 33904 ft 466 kts 266°
2026-04-20 14:22 23.16470 74.72068 33899 ft 466 kts 266°
2026-04-20 14:23 23.16334 74.65024 33899 ft 466 kts 266°
2026-04-20 14:23 23.16196 74.58028 33885 ft 466 kts 266°
2026-04-20 14:24 23.16053 74.50985 33888 ft 466 kts 266°
2026-04-20 14:24 23.15908 74.43944 33875 ft 466 kts 266°
2026-04-20 14:25 23.15759 74.36858 33877 ft 466 kts 266°
2026-04-20 14:25 23.15555 74.29824 33863 ft 466 kts 265°
2026-04-20 14:26 23.15215 74.22833 33866 ft 467 kts 265°
2026-04-20 14:26 23.14856 74.15783 33856 ft 468 kts 265°
2026-04-20 14:27 23.14510 74.08718 33860 ft 469 kts 265°
2026-04-20 14:27 23.14170 74.01642 33844 ft 469 kts 265°
2026-04-20 14:28 23.13828 73.94549 33841 ft 471 kts 265°
2026-04-20 14:28 23.13483 73.87434 33842 ft 472 kts 265°
2026-04-20 14:29 23.13132 73.80294 33839 ft 474 kts 265°
2026-04-20 14:29 23.12777 73.73135 33824 ft 475 kts 265°
2026-04-20 14:30 23.12419 73.65972 33826 ft 475 kts 265°
2026-04-20 14:30 23.12056 73.58796 33819 ft 476 kts 265°
2026-04-20 14:31 23.11690 73.51621 33820 ft 476 kts 265°
2026-04-20 14:31 23.11321 73.44440 33811 ft 476 kts 265°
2026-04-20 14:32 23.10949 73.37266 33816 ft 476 kts 265°
2026-04-20 14:32 23.10573 73.30089 33810 ft 476 kts 265°
2026-04-20 14:33 23.10195 73.22917 33805 ft 476 kts 266°
2026-04-20 14:33 23.09812 73.15737 33805 ft 476 kts 265°
2026-04-20 14:34 23.09427 73.08559 33803 ft 476 kts 265°
2026-04-20 14:34 23.09038 73.01370 33803 ft 476 kts 265°
2026-04-20 14:35 23.08645 72.94187 33787 ft 477 kts 266°
2026-04-20 14:35 23.08250 72.86996 33785 ft 477 kts 266°
2026-04-20 14:36 23.07853 72.79847 33781 ft 478 kts 266°
2026-04-20 14:36 23.07450 72.72642 33803 ft 478 kts 266°
2026-04-20 14:37 23.07044 72.65432 33803 ft 478 kts 265°
2026-04-20 14:37 23.06314 72.58261 33807 ft 478 kts 261°
2026-04-20 14:38 23.05284 72.51126 33803 ft 479 kts 261°
2026-04-20 14:38 23.04253 72.43981 33802 ft 479 kts 261°
2026-04-20 14:39 23.03237 72.36823 33803 ft 480 kts 261°
2026-04-20 14:39 23.02224 72.29656 33803 ft 480 kts 261°
2026-04-20 14:40 23.01208 72.22486 33794 ft 481 kts 261°
2026-04-20 14:40 23.00186 72.15299 33806 ft 482 kts 261°
2026-04-20 14:41 22.99158 72.08099 33809 ft 483 kts 261°
2026-04-20 14:41 22.98125 72.00886 33809 ft 484 kts 261°
2026-04-20 14:42 22.97086 71.93662 33811 ft 485 kts 261°
2026-04-20 14:42 22.96051 71.86482 33804 ft 486 kts 261°
2026-04-20 14:43 22.95002 71.79234 33817 ft 487 kts 261°
2026-04-20 14:43 22.93949 71.71973 33815 ft 488 kts 261°
2026-04-20 14:44 22.92889 71.64700 33819 ft 488 kts 261°
2026-04-20 14:44 22.91826 71.57423 33819 ft 489 kts 261°
2026-04-20 14:45 22.90758 71.50138 33814 ft 489 kts 261°
2026-04-20 14:45 22.89686 71.42849 33823 ft 490 kts 261°
2026-04-20 14:46 22.88610 71.35556 33819 ft 490 kts 261°
2026-04-20 14:46 22.87530 71.28258 33825 ft 490 kts 261°
2026-04-20 14:47 22.86447 71.20966 33826 ft 490 kts 261°
2026-04-20 14:48 22.84817 71.10030 33830 ft 490 kts 261°
2026-04-20 14:48 22.83726 71.02742 33832 ft 489 kts 261°
2026-04-20 14:49 22.82633 70.95463 33834 ft 489 kts 261°
2026-04-20 14:49 22.81538 70.88186 33835 ft 489 kts 261°
2026-04-20 14:50 22.80920 70.80862 33841 ft 488 kts 271°
2026-04-20 14:50 22.81353 70.73527 33837 ft 488 kts 275°
2026-04-20 14:51 22.81874 70.66192 33839 ft 488 kts 275°
2026-04-20 14:51 22.82360 70.58852 33841 ft 489 kts 274°
2026-04-20 14:52 22.82823 70.51501 33839 ft 489 kts 274°
2026-04-20 14:52 22.83279 70.44153 33847 ft 488 kts 274°
2026-04-20 14:53 22.83728 70.36875 33837 ft 486 kts 274°
2026-04-20 14:53 22.84177 70.29571 33838 ft 485 kts 274°
2026-04-20 14:54 22.84621 70.22288 33840 ft 484 kts 274°
2026-04-20 14:54 22.85060 70.15022 33838 ft 483 kts 275°
2026-04-20 14:55 22.85497 70.07765 33841 ft 482 kts 275°
2026-04-20 14:55 22.85859 70.01688 33844 ft 482 kts 275°
2026-04-20 14:56 22.86289 69.94435 33844 ft 482 kts 275°
2026-04-20 14:56 22.86715 69.87174 33850 ft 483 kts 275°
2026-04-20 14:57 22.87136 69.79948 33844 ft 484 kts 276°
2026-04-20 14:57 22.87560 69.72649 33859 ft 486 kts 276°
2026-04-20 14:58 22.88000 69.65320 33857 ft 488 kts 276°
2026-04-20 14:58 22.88483 69.57974 33856 ft 489 kts 276°
2026-04-20 14:59 22.88963 69.50648 33846 ft 490 kts 277°
2026-04-20 14:59 22.89439 69.43263 33867 ft 491 kts 277°
2026-04-20 15:00 22.89909 69.35857 33857 ft 493 kts 277°
2026-04-20 15:00 22.90375 69.28440 33867 ft 493 kts 277°
2026-04-20 15:01 22.90838 69.21011 33863 ft 494 kts 277°
2026-04-20 15:01 22.91299 69.13576 33857 ft 495 kts 278°
2026-04-20 15:02 22.91759 69.06115 33866 ft 496 kts 278°
2026-04-20 15:02 22.92216 68.98633 33865 ft 498 kts 278°
2026-04-20 15:03 22.92671 68.91129 33863 ft 499 kts 278°
2026-04-20 15:03 22.93123 68.83603 33850 ft 501 kts 278°
2026-04-20 15:04 22.93574 68.76052 33861 ft 503 kts 278°
2026-04-20 15:04 22.94023 68.68468 33865 ft 504 kts 278°
2026-04-20 15:05 22.94468 68.60870 33867 ft 505 kts 278°
2026-04-20 15:05 22.94911 68.53261 33863 ft 506 kts 278°
2026-04-20 15:06 22.95348 68.45696 33862 ft 505 kts 278°
2026-04-20 15:06 22.95779 68.38098 33862 ft 505 kts 277°
2026-04-20 15:07 22.95874 68.30468 33857 ft 506 kts 274°
2026-04-20 15:07 22.95836 68.22842 33859 ft 505 kts 274°
2026-04-20 15:08 22.95816 68.15235 33857 ft 504 kts 274°
2026-04-20 15:08 22.95815 68.07631 33861 ft 504 kts 274°
2026-04-20 15:09 22.95814 68.00036 33857 ft 504 kts 274°
2026-04-20 15:09 22.95808 67.92439 33864 ft 504 kts 274°
2026-04-20 15:10 22.95799 67.84836 33863 ft 504 kts 274°
2026-04-20 15:10 22.95816 67.77236 33870 ft 504 kts 275°
2026-04-20 15:11 22.95837 67.69625 33868 ft 504 kts 275°
2026-04-20 15:11 22.95851 67.62017 33869 ft 505 kts 275°
2026-04-20 15:12 22.95859 67.54398 33868 ft 505 kts 274°
2026-04-20 15:12 22.95864 67.46776 33867 ft 506 kts 274°
2026-04-20 15:13 22.95864 67.39131 33872 ft 507 kts 274°
2026-04-20 15:13 22.95861 67.31472 33869 ft 508 kts 274°
2026-04-20 15:14 22.95854 67.23791 33870 ft 509 kts 274°
2026-04-20 15:14 22.95844 67.16108 33866 ft 510 kts 273°
2026-04-20 15:15 22.95829 67.08464 33869 ft 510 kts 273°
2026-04-20 15:15 22.95812 67.00734 33882 ft 508 kts 272°
2026-04-20 15:16 22.95801 66.93133 33871 ft 506 kts 273°
2026-04-20 15:16 22.95846 66.85526 33871 ft 503 kts 273°
2026-04-20 15:17 22.95904 66.77959 33867 ft 500 kts 273°
2026-04-20 15:17 22.95951 66.70426 33871 ft 499 kts 273°
2026-04-20 15:18 22.95988 66.62910 33878 ft 498 kts 273°
2026-04-20 15:18 22.96021 66.55396 33867 ft 498 kts 272°
2026-04-20 15:19 22.96050 66.47884 33879 ft 498 kts 272°
2026-04-20 15:19 22.96075 66.40367 33874 ft 498 kts 272°
2026-04-20 15:20 22.96097 66.32843 33875 ft 499 kts 272°
2026-04-20 15:20 22.96116 66.25316 33878 ft 499 kts 272°
2026-04-20 15:21 22.96131 66.17779 33890 ft 500 kts 271°
2026-04-20 15:21 22.96142 66.10222 33878 ft 501 kts 271°
2026-04-20 15:22 22.96150 66.02654 33879 ft 502 kts 271°
2026-04-20 15:22 22.96154 65.95076 33883 ft 503 kts 271°
2026-04-20 15:23 22.96155 65.87487 33874 ft 503 kts 271°
2026-04-20 15:23 22.96152 65.79893 33878 ft 504 kts 271°
2026-04-20 15:24 22.96146 65.72290 33879 ft 504 kts 271°
2026-04-20 15:24 22.96135 65.64687 33883 ft 504 kts 271°
2026-04-20 15:25 22.96121 65.57083 33873 ft 504 kts 271°
2026-04-20 15:25 22.96104 65.49480 33876 ft 503 kts 271°
2026-04-20 15:26 22.96083 65.41888 33884 ft 503 kts 271°
2026-04-20 15:26 22.96059 65.34352 33884 ft 503 kts 271°
2026-04-20 15:27 22.96030 65.26773 33883 ft 502 kts 271°
2026-04-20 15:27 22.95999 65.19202 33881 ft 501 kts 271°
2026-04-20 15:28 22.95964 65.11635 33870 ft 502 kts 271°
2026-04-20 15:28 22.95925 65.04058 33882 ft 503 kts 271°
2026-04-20 15:29 22.95882 64.96468 33878 ft 504 kts 271°
2026-04-20 15:29 22.95837 64.88863 33885 ft 504 kts 271°
2026-04-20 15:30 22.95940 64.81257 33884 ft 503 kts 277°
2026-04-20 15:30 22.96745 64.73723 33887 ft 503 kts 278°
2026-04-20 15:31 22.97598 64.66186 33888 ft 504 kts 278°
2026-04-20 15:31 22.98415 64.58636 33881 ft 504 kts 278°
2026-04-20 15:32 22.99207 64.51079 33884 ft 504 kts 278°
2026-04-20 15:32 22.99992 64.43524 33886 ft 504 kts 278°
2026-04-20 15:33 23.00774 64.35973 33885 ft 503 kts 278°
2026-04-20 15:33 23.01554 64.28428 33885 ft 502 kts 278°
2026-04-20 15:34 23.02329 64.20898 33878 ft 501 kts 278°
2026-04-20 15:34 23.03093 64.13436 33879 ft 500 kts 278°
2026-04-20 15:35 23.03857 64.05933 33876 ft 500 kts 278°
2026-04-20 15:35 23.04617 63.98435 33880 ft 499 kts 278°
2026-04-20 15:36 23.05374 63.90944 33882 ft 499 kts 278°
2026-04-20 15:36 23.06132 63.83450 33879 ft 499 kts 278°
2026-04-20 15:37 23.06916 63.75963 33882 ft 499 kts 278°
2026-04-20 15:37 23.07704 63.68474 33880 ft 499 kts 278°
2026-04-20 15:38 23.08483 63.60990 33881 ft 499 kts 278°
2026-04-20 15:38 23.09256 63.53510 33878 ft 498 kts 278°
2026-04-20 15:39 23.10024 63.46033 33876 ft 498 kts 278°
2026-04-20 15:39 23.10788 63.38567 33885 ft 497 kts 278°
2026-04-20 15:40 23.11546 63.31117 33874 ft 495 kts 278°
2026-04-20 15:40 23.12299 63.23689 33876 ft 494 kts 278°
2026-04-20 15:41 23.13046 63.16277 33875 ft 493 kts 278°
2026-04-20 15:41 23.13789 63.08876 33878 ft 493 kts 278°
2026-04-20 15:42 23.14528 63.01479 33881 ft 492 kts 278°
2026-04-20 15:42 23.15139 62.95340 33872 ft 492 kts 278°
2026-04-20 15:43 23.15874 62.87926 33875 ft 494 kts 278°
2026-04-20 15:43 23.16606 62.80494 33878 ft 496 kts 278°
2026-04-20 15:44 23.17338 62.73030 33881 ft 497 kts 278°
2026-04-20 15:44 23.18068 62.65550 33879 ft 499 kts 278°
2026-04-20 15:45 23.18796 62.58048 33871 ft 499 kts 278°
2026-04-20 15:45 23.19521 62.50541 33867 ft 499 kts 278°
2026-04-20 15:46 23.20242 62.43039 33877 ft 499 kts 278°
2026-04-20 15:46 23.20956 62.35576 33872 ft 500 kts 278°
2026-04-20 15:47 23.21671 62.28070 33872 ft 499 kts 278°
2026-04-20 15:47 23.22381 62.20560 33867 ft 499 kts 278°
2026-04-20 15:48 23.23089 62.13053 33870 ft 499 kts 278°
2026-04-20 15:48 23.23793 62.05537 33864 ft 499 kts 278°
2026-04-20 15:49 23.24493 61.98023 33873 ft 500 kts 278°
2026-04-20 15:49 23.25190 61.90510 33859 ft 499 kts 278°
2026-04-20 15:50 23.25882 61.83005 33868 ft 499 kts 278°
2026-04-20 15:50 23.26570 61.75506 33872 ft 498 kts 278°
2026-04-20 15:51 23.27253 61.68022 33869 ft 497 kts 278°
2026-04-20 15:51 23.27933 61.60541 33865 ft 497 kts 278°
2026-04-20 15:52 23.28608 61.53065 33865 ft 496 kts 278°
2026-04-20 15:52 23.29279 61.45596 33862 ft 496 kts 278°
2026-04-20 15:53 23.30279 61.34391 33865 ft 496 kts 278°
2026-04-20 15:53 23.30940 61.26925 33860 ft 496 kts 278°
2026-04-20 15:54 23.31599 61.19463 33855 ft 495 kts 278°
2026-04-20 15:54 23.32395 61.12029 33854 ft 494 kts 280°
2026-04-20 15:55 23.33385 61.04634 33859 ft 494 kts 281°
2026-04-20 15:55 23.34352 60.97245 33864 ft 493 kts 279°
2026-04-20 15:56 23.35277 60.89864 33849 ft 492 kts 279°
2026-04-20 15:56 23.36189 60.82495 33855 ft 491 kts 279°
2026-04-20 15:57 23.37100 60.75143 33853 ft 490 kts 279°
2026-04-20 15:57 23.38025 60.67813 33857 ft 488 kts 280°
2026-04-20 15:58 23.39736 60.60700 33845 ft 485 kts 291°
2026-04-20 15:58 23.42255 60.53902 33854 ft 484 kts 292°
2026-04-20 15:59 23.44767 60.47166 33856 ft 483 kts 292°
2026-04-20 15:59 23.47266 60.40375 33855 ft 483 kts 291°
2026-04-20 16:00 23.49745 60.33578 33870 ft 483 kts 291°
2026-04-20 16:00 23.52221 60.26768 33864 ft 484 kts 291°
2026-04-20 16:01 23.54698 60.19948 33860 ft 484 kts 291°
2026-04-20 16:01 23.57176 60.13116 33859 ft 484 kts 291°
2026-04-20 16:02 23.59650 60.06287 33860 ft 484 kts 291°
2026-04-20 16:02 23.62121 59.99457 33857 ft 484 kts 291°
2026-04-20 16:03 23.64587 59.92627 33857 ft 484 kts 291°
2026-04-20 16:03 23.67048 59.85801 33867 ft 483 kts 291°
2026-04-20 16:04 23.69505 59.78977 33858 ft 483 kts 291°
2026-04-20 16:04 23.71957 59.72153 33856 ft 483 kts 291°
2026-04-20 16:05 23.74403 59.65335 33855 ft 482 kts 291°
2026-04-20 16:05 23.76845 59.58517 33856 ft 482 kts 291°
2026-04-20 16:06 23.79279 59.51711 33853 ft 481 kts 291°
2026-04-20 16:06 23.81706 59.44917 33849 ft 480 kts 291°
2026-04-20 16:07 23.84125 59.38132 33858 ft 479 kts 291°
2026-04-20 16:07 23.86538 59.31351 33847 ft 479 kts 291°
2026-04-20 16:08 23.88948 59.24568 33851 ft 479 kts 291°
2026-04-20 16:08 23.91356 59.17781 33846 ft 479 kts 291°
2026-04-20 16:09 23.93737 59.10969 33848 ft 480 kts 290°
2026-04-20 16:09 23.95947 59.04085 33848 ft 480 kts 289°
2026-04-20 16:10 23.98128 58.97180 33843 ft 481 kts 289°
2026-04-20 16:10 24.00331 58.90273 33859 ft 481 kts 289°
2026-04-20 16:11 24.02530 58.83406 33855 ft 482 kts 289°
2026-04-20 16:11 24.04743 58.76489 33845 ft 482 kts 289°
2026-04-20 16:12 24.06968 58.69515 33846 ft 482 kts 289°
2026-04-20 16:12 24.09160 58.62634 33848 ft 482 kts 289°
2026-04-20 16:13 24.11378 58.55657 33846 ft 482 kts 289°
2026-04-20 16:13 24.13557 58.48775 33843 ft 482 kts 289°
2026-04-20 16:14 24.15747 58.41844 33847 ft 481 kts 289°
2026-04-20 16:14 24.17932 58.34917 33840 ft 481 kts 289°
2026-04-20 16:15 24.20114 58.27986 33848 ft 481 kts 289°
2026-04-20 16:15 24.22293 58.21055 33845 ft 481 kts 289°
2026-04-20 16:16 24.24469 58.14118 33836 ft 482 kts 289°
2026-04-20 16:16 24.26645 58.07171 33852 ft 482 kts 289°
2026-04-20 16:17 24.28821 58.00213 33845 ft 483 kts 289°
2026-04-20 16:17 24.30995 57.93245 33841 ft 483 kts 289°
2026-04-20 16:18 24.33169 57.86267 33845 ft 484 kts 289°
2026-04-20 16:18 24.35341 57.79281 33850 ft 484 kts 289°
2026-04-20 16:19 24.37513 57.72284 33834 ft 485 kts 289°
2026-04-20 16:19 24.39662 57.65346 33815 ft 468 kts 289°
2026-04-20 16:20 24.40688 57.62026 33821 ft 451 kts 289°
2026-04-20 16:20 24.41679 57.58821 33820 ft 436 kts 289°
2026-04-20 16:20 24.43624 57.52524 33833 ft 435 kts 289°
2026-04-20 16:21 24.44595 57.49378 33462 ft 435 kts 289°
2026-04-20 16:21 24.45562 57.46247 33010 ft 431 kts 289°
2026-04-20 16:21 24.46521 57.43141 32543 ft 428 kts 288°
2026-04-20 16:21 24.47471 57.40062 32094 ft 424 kts 288°
2026-04-20 16:22 24.48413 57.37007 31653 ft 421 kts 288°
2026-04-20 16:22 24.49334 57.34015 31209 ft 418 kts 288°
2026-04-20 16:22 24.50262 57.31001 30754 ft 415 kts 288°
2026-04-20 16:22 24.51182 57.28008 30326 ft 413 kts 287°
2026-04-20 16:23 24.52097 57.25031 29875 ft 411 kts 287°
2026-04-20 16:23 24.53006 57.22066 29355 ft 408 kts 287°
2026-04-20 16:23 24.53908 57.19122 28877 ft 405 kts 287°
2026-04-20 16:23 24.54803 57.16202 28425 ft 402 kts 287°
2026-04-20 16:24 24.55689 57.13307 27975 ft 398 kts 287°
2026-04-20 16:24 24.56567 57.10435 27542 ft 395 kts 288°
2026-04-20 16:24 24.57439 57.07585 27113 ft 392 kts 288°
2026-04-20 16:24 24.58303 57.04756 26686 ft 389 kts 288°
2026-04-20 16:25 24.59159 57.01950 26259 ft 386 kts 288°
2026-04-20 16:25 24.60009 56.99164 25844 ft 384 kts 288°
2026-04-20 16:25 24.60853 56.96392 25429 ft 381 kts 288°
2026-04-20 16:25 24.61692 56.93638 25025 ft 379 kts 288°
2026-04-20 16:26 24.62526 56.90898 24598 ft 377 kts 288°
2026-04-20 16:26 24.63357 56.88167 24187 ft 376 kts 288°
2026-04-20 16:26 24.64169 56.85446 23773 ft 374 kts 286°
2026-04-20 16:26 24.64778 56.82671 23346 ft 373 kts 279°
2026-04-20 16:27 24.65162 56.79863 22890 ft 370 kts 278°
2026-04-20 16:27 24.65530 56.77069 22462 ft 368 kts 278°
2026-04-20 16:27 24.65898 56.74300 22050 ft 365 kts 278°
2026-04-20 16:27 24.66267 56.71549 21649 ft 362 kts 279°
2026-04-20 16:28 24.66636 56.68823 21244 ft 359 kts 279°
2026-04-20 16:28 24.67004 56.66117 20854 ft 357 kts 279°
2026-04-20 16:28 24.67370 56.63429 20463 ft 354 kts 279°
2026-04-20 16:28 24.67734 56.60760 20082 ft 352 kts 279°
2026-04-20 16:29 24.67973 56.59002 19826 ft 350 kts 279°
2026-04-20 16:29 24.68475 56.55518 19309 ft 346 kts 283°
2026-04-20 16:29 24.68936 56.53814 19058 ft 344 kts 291°
2026-04-20 16:29 24.70332 56.50711 18544 ft 341 kts 303°
2026-04-20 16:30 24.71740 56.48619 18159 ft 339 kts 308°
2026-04-20 16:30 24.73203 56.46596 17736 ft 337 kts 308°
2026-04-20 16:30 24.74652 56.44577 17327 ft 335 kts 308°
2026-04-20 16:30 24.75617 56.43218 17072 ft 333 kts 308°
2026-04-20 16:31 24.77029 56.41218 16704 ft 330 kts 308°
2026-04-20 16:31 24.78392 56.39220 16312 ft 325 kts 303°
2026-04-20 16:31 24.79421 56.37022 15949 ft 322 kts 293°
2026-04-20 16:31 24.80096 56.34692 15580 ft 319 kts 283°
2026-04-20 16:32 24.80522 56.32310 15215 ft 316 kts 282°
2026-04-20 16:32 24.80918 56.29944 14870 ft 313 kts 282°
2026-04-20 16:32 24.81310 56.27598 14522 ft 310 kts 283°
2026-04-20 16:32 24.81704 56.25269 14181 ft 308 kts 283°
2026-04-20 16:33 24.82099 56.22963 13828 ft 306 kts 283°
2026-04-20 16:33 24.82490 56.20701 13452 ft 304 kts 284°
2026-04-20 16:33 24.82885 56.18429 13089 ft 301 kts 283°
2026-04-20 16:33 24.83280 56.16161 12829 ft 294 kts 284°
2026-04-20 16:34 24.83660 56.13982 12546 ft 293 kts 284°
2026-04-20 16:34 24.84040 56.11805 12436 ft 286 kts 283°
2026-04-20 16:34 24.84408 56.09691 12297 ft 276 kts 284°
2026-04-20 16:34 24.84762 56.07655 12171 ft 264 kts 284°
2026-04-20 16:35 24.85098 56.05714 12068 ft 253 kts 284°
2026-04-20 16:35 24.85512 56.03864 11931 ft 249 kts 299°
2026-04-20 16:35 24.86479 56.02201 11866 ft 267 kts 302°
2026-04-20 16:35 24.86986 56.00221 11848 ft 277 kts 271°
2026-04-20 16:36 24.86729 55.98107 11891 ft 280 kts 262°
2026-04-20 16:36 24.86297 55.96016 11887 ft 279 kts 260°
2026-04-20 16:36 24.85867 55.93936 11881 ft 278 kts 261°
2026-04-20 16:36 24.85469 55.91859 11878 ft 277 kts 262°
2026-04-20 16:37 24.85102 55.89784 11881 ft 276 kts 263°
2026-04-20 16:37 24.84758 55.87708 11879 ft 275 kts 264°
2026-04-20 16:37 24.84430 55.85617 11674 ft 283 kts 264°
2026-04-20 16:37 24.84104 55.83458 11317 ft 287 kts 264°
2026-04-20 16:38 24.83785 55.81301 10959 ft 284 kts 264°
2026-04-20 16:38 24.83473 55.79166 10616 ft 281 kts 264°
2026-04-20 16:38 24.83169 55.77059 10276 ft 277 kts 264°
2026-04-20 16:38 24.82871 55.74978 9944 ft 274 kts 264°
2026-04-20 16:39 24.82578 55.72921 9606 ft 270 kts 264°
2026-04-20 16:39 24.82290 55.70894 9243 ft 266 kts 264°
2026-04-20 16:39 24.82006 55.68896 8917 ft 263 kts 264°
2026-04-20 16:39 24.81725 55.66910 8619 ft 261 kts 264°
2026-04-20 16:40 24.81449 55.64972 8421 ft 258 kts 264°
2026-04-20 16:40 24.81171 55.62999 8105 ft 262 kts 264°
2026-04-20 16:40 24.80888 55.61003 7783 ft 265 kts 264°
2026-04-20 16:40 24.80603 55.58992 7444 ft 267 kts 264°
2026-04-20 16:41 24.80316 55.56980 7071 ft 265 kts 264°
2026-04-20 16:41 24.80031 55.54980 6684 ft 263 kts 264°
2026-04-20 16:41 24.79749 55.53006 6371 ft 259 kts 264°
2026-04-20 16:41 24.79471 55.51061 6038 ft 255 kts 264°
2026-04-20 16:42 24.79197 55.49144 5715 ft 252 kts 264°
2026-04-20 16:42 24.78926 55.47240 5411 ft 252 kts 264°
2026-04-20 16:42 24.78653 55.45329 5106 ft 253 kts 264°
2026-04-20 16:42 24.78379 55.43414 4800 ft 254 kts 264°
2026-04-20 16:43 24.78104 55.41496 4489 ft 254 kts 264°
2026-04-20 16:43 24.77828 55.39576 4160 ft 254 kts 264°
2026-04-20 16:43 24.77821 55.37692 3815 ft 243 kts 291°
2026-04-20 16:43 24.78603 55.36118 3646 ft 229 kts 306°
2026-04-20 16:44 24.79446 55.34639 3416 ft 229 kts 303°
2026-04-20 16:44 24.80253 55.33149 3158 ft 224 kts 303°
2026-04-20 16:44 24.81046 55.31704 2893 ft 217 kts 303°
2026-04-20 16:44 24.81814 55.30312 2639 ft 211 kts 303°
2026-04-20 16:45 24.82566 55.28953 2368 ft 205 kts 303°
2026-04-20 16:45 24.83295 55.27633 2091 ft 197 kts 303°
2026-04-20 16:45 24.83990 55.26377 1853 ft 188 kts 303°
2026-04-20 16:45 24.84642 55.25191 1608 ft 173 kts 303°
2026-04-20 16:46 24.85244 55.24100 1407 ft 162 kts 303°
2026-04-20 16:46 24.85804 55.23086 1221 ft 151 kts 303°
2026-04-20 16:46 24.86340 55.22117 1029 ft 151 kts 302°
2026-04-20 16:46 24.86882 55.21134 824 ft 150 kts 302°
2026-04-20 16:47 24.87424 55.20153 667 ft 151 kts 302°
2026-04-20 16:47 24.87967 55.19161 416 ft 150 kts 302°
2026-04-20 16:47 24.88508 55.18187 256 ft 148 kts 302°
2026-04-20 16:47 24.89035 55.17238 164 ft 135 kts 300°
2026-04-20 16:48 24.89432 55.16524 162 ft 82 kts 301°
2026-04-20 16:48 24.89710 55.16021 163 ft 72 kts 301°
2026-04-20 16:48 24.89916 55.15651 161 ft 44 kts 301°
2026-04-20 16:48 24.89986 55.15405 162 ft 21 kts 275°
2026-04-20 16:49 24.89993 55.15243 163 ft 21 kts 270°
2026-04-20 16:49 24.90004 55.15090 164 ft 18 kts 291°
2026-04-20 16:49 24.90029 55.14989 163 ft 13 kts 251°
2026-04-20 16:49 24.89964 55.14926 163 ft 13 kts 211°
2026-04-20 16:50 24.89888 55.14875 163 ft 13 kts 212°
2026-04-20 16:50 24.89814 55.14823 163 ft 13 kts 213°
2026-04-20 16:50 24.89739 55.14773 163 ft 13 kts 210°
2026-04-20 16:50 24.89663 55.14724 164 ft 13 kts 211°
2026-04-20 16:51 24.89588 55.14673 164 ft 13 kts 212°
2026-04-20 16:51 24.89512 55.14622 164 ft 13 kts 211°
2026-04-20 16:51 24.89437 55.14572 165 ft 13 kts 211°
2026-04-20 16:51 24.89365 55.14524 165 ft 5 kts 211°
2026-04-20 16:52 24.89333 55.14502 165 ft 5 kts 211°
2026-04-20 16:52 24.89322 55.14466 165 ft 6 kts 281°
2026-04-20 16:52 24.89337 55.14427 165 ft 5 kts 298°
2026-04-20 16:52 24.89351 55.14401 165 ft 3 kts 302°
2026-04-20 16:53 24.89355 55.14394 165 ft 0 kts 302°